{"data":{"norad_id":58847,"epoch":"2026-09-20T06:49:12.735552Z","epoch_age_seconds":171139,"freshness":"FRESH","line1":"1 58847U 24017X   26263.28417518  .00001363  00000+0  51474-4 0  9998","line2":"2 58847  53.1579 108.3636 0000930  95.9938 264.1170 15.34387115148592","mean_motion":15.34387115,"eccentricity":9.3e-5,"inclination_deg":53.1579,"raan_deg":108.3636,"arg_perigee_deg":95.9938,"mean_anomaly_deg":264.117,"bstar":5.1474e-5,"rev_number":14859,"period_min":93.848546166917,"perigee_km":462.10533570651,"apogee_km":463.37773911447,"semimajor_km":6840.8785374105,"source":"CELESTRAK","updated_at":"2026-09-21T09:00:33.986693Z"}}